TimeBST,TemperatureF,Dew PointF,Humidity,Sea Level PressureIn,VisibilityMPH,Wind Direction,Wind SpeedMPH,Gust SpeedMPH,PrecipitationIn,Events,Conditions,WindDirDegrees,DateUTC
12:20 AM,55.4,53.6,94,29.98,4.3,West,3.5,-,N/A,,Overcast,260,2013-05-19 23:20:00
12:50 AM,55.4,53.6,94,29.98,4.3,Variable,2.3,-,N/A,,Overcast,0,2013-05-19 23:50:00
1:20 AM,55.4,53.6,94,29.98,4.3,WNW,2.3,-,N/A,,Overcast,290,2013-05-20 00:20:00
1:50 AM,55.4,53.6,94,29.95,4.3,SW,4.6,-,N/A,,Overcast,230,2013-05-20 00:50:00
2:20 AM,55.4,53.6,94,29.95,-9999.0,SW,5.8,-,N/A,,Overcast,220,2013-05-20 01:20:00
2:50 AM,55.4,53.6,94,29.95,4.3,WSW,4.6,-,N/A,,Overcast,250,2013-05-20 01:50:00
3:20 AM,55.4,53.6,94,29.95,-9999.0,WSW,4.6,-,N/A,,Haze,250,2013-05-20 02:20:00
3:50 AM,55.4,53.6,94,29.95,2.5,WSW,4.6,-,N/A,,Haze,240,2013-05-20 02:50:00
4:20 AM,53.6,53.6,100,29.95,1.9,WSW,5.8,-,N/A,,Overcast,240,2013-05-20 03:20:00
4:50 AM,53.6,53.6,100,29.95,-9999.0,WSW,4.6,-,N/A,,Overcast,240,2013-05-20 03:50:00
5:20 AM,53.6,53.6,100,29.95,-9999.0,WSW,6.9,-,N/A,,Overcast,240,2013-05-20 04:20:00
5:50 AM,55.4,53.6,94,29.95,2.2,WSW,5.8,-,N/A,,Haze,250,2013-05-20 04:50:00
6:20 AM,55.4,53.6,94,29.95,1.6,WSW,4.6,-,N/A,,Haze,250,2013-05-20 05:20:00
6:50 AM,55.4,53.6,94,29.95,-9999.0,WSW,4.6,-,N/A,,Overcast,250,2013-05-20 05:50:00
7:20 AM,55.4,53.6,94,29.95,-9999.0,WSW,5.8,-,N/A,,Haze,250,2013-05-20 06:20:00
7:50 AM,55.4,53.6,94,29.95,-9999.0,West,3.5,-,N/A,,Haze,270,2013-05-20 06:50:00
8:20 AM,55.4,55.4,100,29.95,2.5,West,5.8,-,N/A,,Haze,280,2013-05-20 07:20:00
8:50 AM,57.2,55.4,94,29.95,-9999.0,West,4.6,-,N/A,,Haze,280,2013-05-20 07:50:00
9:20 AM,57.2,55.4,94,29.95,4.3,WSW,3.5,-,N/A,,Mostly Cloudy,250,2013-05-20 08:20:00
9:50 AM,59.0,55.4,88,29.95,5.6,WNW,5.8,-,N/A,,Mostly Cloudy,290,2013-05-20 08:50:00
10:20 AM,59.0,57.2,94,29.95,5.6,West,4.6,-,N/A,,Mostly Cloudy,280,2013-05-20 09:20:00
10:50 AM,60.8,57.2,88,29.95,6.2,Calm,Calm,-,N/A,,Mostly Cloudy,0,2013-05-20 09:50:00
11:20 AM,62.6,57.2,82,29.95,6.2,Variable,2.3,-,N/A,,Mostly Cloudy,0,2013-05-20 10:20:00
11:50 AM,62.6,57.2,82,29.95,6.2,Variable,3.5,-,N/A,,Mostly Cloudy,0,2013-05-20 10:50:00
12:20 PM,66.2,57.2,73,29.95,6.2,Variable,3.5,-,N/A,,Scattered Clouds,0,2013-05-20 11:20:00
12:50 PM,66.2,57.2,73,29.95,6.2,Variable,4.6,-,N/A,,Scattered Clouds,0,2013-05-20 11:50:00
1:20 PM,68.0,59.0,73,29.92,6.2,Variable,3.5,-,N/A,,Scattered Clouds,0,2013-05-20 12:20:00
1:50 PM,69.8,59.0,68,29.92,6.2,South,4.6,-,N/A,,Scattered Clouds,180,2013-05-20 12:50:00
2:20 PM,69.8,59.0,68,29.92,6.2,WNW,4.6,-,N/A,,Scattered Clouds,300,2013-05-20 13:20:00
2:50 PM,69.8,59.0,68,29.92,6.2,West,4.6,-,N/A,,Mostly Cloudy,260,2013-05-20 13:50:00
3:20 PM,69.8,59.0,68,29.92,6.2,West,6.9,-,N/A,,Mostly Cloudy,270,2013-05-20 14:20:00
3:50 PM,69.8,59.0,68,29.92,6.2,WSW,9.2,-,N/A,,Mostly Cloudy,250,2013-05-20 14:50:00
4:20 PM,69.8,60.8,73,29.92,6.2,WNW,5.8,-,N/A,,Mostly Cloudy,290,2013-05-20 15:20:00
4:50 PM,68.0,60.8,78,29.92,6.2,Variable,3.5,-,N/A,,Scattered Clouds,0,2013-05-20 15:50:00
5:20 PM,69.8,59.0,68,29.92,6.2,West,6.9,-,N/A,,Scattered Clouds,260,2013-05-20 16:20:00
5:50 PM,69.8,59.0,68,29.92,6.2,NW,4.6,-,N/A,,Mostly Cloudy,310,2013-05-20 16:50:00
6:20 PM,64.4,59.0,83,29.92,6.2,ENE,8.1,-,N/A,Rain,Light Rain Showers,60,2013-05-20 17:20:00
6:50 PM,60.8,59.0,94,29.92,6.2,NE,5.8,-,N/A,,Mostly Cloudy,40,2013-05-20 17:50:00
7:20 PM,57.2,55.4,94,29.95,3.7,ENE,10.4,-,N/A,,Mostly Cloudy,60,2013-05-20 18:20:00
7:50 PM,57.2,55.4,94,29.95,3.1,NE,6.9,-,N/A,,Mostly Cloudy,50,2013-05-20 18:50:00
8:20 PM,55.4,53.6,94,29.98,1.2,NE,8.1,-,N/A,,Overcast,50,2013-05-20 19:20:00
8:50 PM,51.8,51.8,100,29.98,1.5,NE,9.2,-,N/A,,Overcast,40,2013-05-20 19:50:00
9:20 PM,51.8,51.8,100,30.01,2.2,NNE,12.7,-,N/A,Rain,Light Rain Showers,30,2013-05-20 20:20:00
9:50 PM,51.8,50.0,94,30.01,-9999.0,ENE,9.2,-,N/A,Rain,Light Rain Showers,70,2013-05-20 20:50:00
10:20 PM,51.8,51.8,100,30.01,-9999.0,Variable,3.5,-,N/A,,Overcast,0,2013-05-20 21:20:00
10:50 PM,51.8,50.0,94,30.01,-9999.0,NE,5.8,-,N/A,,Overcast,50,2013-05-20 21:50:00
11:20 PM,51.8,50.0,94,30.04,5.0,ENE,5.8,-,N/A,,Mostly Cloudy,60,2013-05-20 22:20:00
11:50 PM,51.8,50.0,94,30.04,6.2,Variable,2.3,-,N/A,,Mostly Cloudy,0,2013-05-20 22:50:00